Regional Weather Roundup
Issued by NWS

Home | Current Version | Previous Version | Text Only | Print | Product List | Glossary Off
Versions: 1 2 3 4 5 6 7 8 9 10 11 12 13 14 15 16 17 18 19 20 21 22 23 24 25 26 27 28 29 30 31 32 33 34 35 36 37 38 39 40 41 42 43 44 45 46 47 48 49 50

555
ASUS43 KLMK 081602
RWRKY
KENTUCKY REGIONAL WEATHER ROUNDUP
NATIONAL WEATHER SERVICE LOUISVILLE KY
1100 AM EST MON FEB 08 2016

NOTE "FAIR" INDICATES FEW OR NO CLOUDS BELOW 12,000 FEET
WITH NO SIGNIFICANT WEATHER AND/OR OBSTRUCTIONS TO VISIBILITY.

KYZ001>023-026-027-061>063-070>075-081700-
WESTERN AND SOUTH CENTRAL KENTUCKY

CITY           SKY/WX    TMP DP  RH WIND       PRES   REMARKS
PADUCAH        CLOUDY    40  24  53 W13       29.82R WCI  32
HENDERSON      CLOUDY    36  27  69 W24G30    29.78S WCI  24
OWENSBORO      PTSUNNY   38  34  85 W12       29.77S WCI  30
HOPKINSVILLE   CLOUDY    41  25  54 W13G22    29.80R
BOWLING GREEN  PTSUNNY   42  30  62 NW13G20   29.78S
GLASGOW        NOT AVBL
$$

KYZ024-025-028>034-038-045-046-053-081700-
NORTH CENTRAL KENTUCKY

CITY           SKY/WX    TMP DP  RH WIND       PRES   REMARKS
LOUISVILLE/SDF LGT RAIN  37  33  85 W13       29.72R WCI  29
LOUISVILLE/LOU CLOUDY    36  33  89 W8        29.72S WCI  30
FORT KNOX      CLOUDY    36  32  87 W13       29.71R WCI  27
$$

KYZ035>037-039>044-047>052-055>060-089>105-081700-
NORTHEAST KENTUCKY

CITY           SKY/WX    TMP DP  RH WIND       PRES   REMARKS
LEXINGTON      LGT SNOW  33  32  96 SW3       29.69F VSB 3/4
COVINGTON      CLOUDY    37  33  85 W12       29.66S WCI  29
FRANKFORT      CLOUDY    35  32  88 W6        29.68F WCI  30
$$

KYZ054-064>069-076>088-106>120-081700-
SOUTHEAST KENTUCKY

CITY           SKY/WX    TMP DP  RH WIND       PRES   REMARKS
JACKSON        CLOUDY    39  34  82 VRB6      29.68F WCI  35
LONDON         PTSUNNY   41  33  73 S10       29.69F
SOMERSET       NOT AVBL
MIDDLESBORO    NOT AVBL
MONTICELLO     RAIN      38  33  82 W22       29.74R WCI  27
$$





USA.gov is the U.S. government's official web portal to all federal, state and local government web resources and services.